RH
93 93 99 100 98 99 100 100 98 99 98 92 80 82 77 75 80 82 90 98 99 97 98 98 97 98 98 99 97 91 87 83 80 77 75 74 75 74
81 74 86 99 99 99 100 98 99 99 99 94 92 87 81 78 78 83 84 87 89 97 99 99 99 98 94 86 82 81 79 78 77 75 75 74 74 80
94 87 93 99 99 99 98 97 96 96 98 100 100 98 96 98 97 98 98 97 94 92 91 86 83 83 82 82 80 79 80 79 77 76 77 83 85 82
93 90 96 93 97 97 95 94 93 93 94 99 100 99 98 100 96 92 89 79 62 59 59 79 83 83 82 80 77 76 81 84 86 79 84 82 82 78
94 98 94 94 92 91 89 89 87 88 90 92 96 96 89 79 69 67 66 64 64 65 62 62 58 65 56 73 87 88 89 91 90 89 88 86 86 83
94 91 92 92 91 89 85 82 82 83 84 84 82 76 73 72 71 72 69 62 58 56 50 41 46 44 46 47 53 65 57 57 79 88 90 87 84 81
93 92 90 88 87 87 85 83 79 71 65 59 67 73 82 77 72 67 65 62 46 34 41 50 53 51 49 52 55 55 55 76 94 91 90 86 84 81
94 99 99 99 100 94 71 62 56 54 52 62 80 80 78 76 73 72 67 64 50 58 70 57 54 52 55 59 58 62 85 95 97 94 90 88 89 86
99 99 98 93 81 78 87 77 93 90 72 69 72 75 77 76 74 71 66 74 86 79 80 66 60 56 59 59 56 59 83 98 95 92 95 94 94 91
88 62 50 50 52 51 52 57 68 75 72 73 75 70 63 62 73 85 85 84 86 76 78 82 71 68 59 60 64 72 99 93 87 88 94 94 92 89
46 54 61 80 91 56 44 49 57 67 74 84 79 84 90 95 92 90 86 87 79 78 86 91 90 82 69 60 64 68 94 77 59 84 92 96 94 92
58 63 62 67 77 77 50 45 44 42 50 57 58 59 61 86 79 79 83 88 94 90 93 93 91 90 85 68 61 56 56 57 58 67 89 100 98 94
58 63 65 76 70 72 76 61 53 66 78 76 66 66 73 82 90 92 95 99 95 92 93 97 98 86 91 88 85 77 73 68 68 69 75 79 85 100
44 45 48 52 60 63 60 54 77 87 84 69 70 81 84 91 95 96 99 97 100 97 94 96 99 96 95 96 92 82 86 81 81 77 78 71 74 80
42 49 69 79 72 56 48 74 78 78 72 73 78 82 89 93 98 99 100 99 98 96 97 98 97 96 98 99 97 99 99 83 80 76 69 74 74 74
52 52 47 48 58 53 52 57 65 68 74 80 88 89 92 95 98 98 96 96 95 90 90 87 88 92 93 93 96 100 100 100 75 77 77 81 77 78
44 49 43 38 42 45 48 55 66 74 84 91 91 90 96 97 96 96 96 93 94 95 89 79 81 86 87 87 98 89 84 86 78 75 86 89 83 81
60 53 52 44 42 45 50 55 65 80 87 91 89 92 92 94 95 94 94 94 96 96 94 85 86 91 93 80 77 80 80 81 77 79 86 96 96 77
76 69 66 61 53 48 51 56 63 68 86 87 85 89 91 96 98 96 97 99 99 98 91 88 90 100 97 95 79 80 88 86 88 86 90 90 99 81
66 61 54 45 45 50 52 57 60 65 72 89 93 89 88 90 94 95 97 99 100 97 93 93 95 92 100 94 93 89 83 89 91 94 94 90 93 95
43 43 44 51 52 50 50 53 60 66 67 70 73 85 95 96 96 99 100 97 95 98 97 91 82 94 97 98 98 91 84 88 95 97 99 100 98 96
48 47 44 48 54 56 53 55 60 63 64 68 72 78 83 89 95 99 100 100 100 100 98 82 81 88 97 100 95 96 94 90 93 98 98 98 100 96
36 32 30 31 36 45 48 51 57 59 60 62 65 67 73 78 76 83 89 92 96 98 97 100 98 100 99 100 100 97 97 92 94 96 91 81 84 96
Wind_Speed
11 9 9 10 11 13 12 12 7 3 3 1 4 3 4 4 7 7 8 13 12 11 12 13 14 14 13 12 12 11 12 13 13 14 15 16 16 17
11 8 9 9 7 7 7 6 8 7 3 3 4 3 4 6 8 9 9 12 15 15 11 11 9 9 9 9 10 11 12 13 13 14 14 16 17 16
8 7 7 6 5 5 4 5 5 6 4 3 3 3 4 5 7 9 9 9 8 8 7 7 7 7 8 9 10 11 11 12 13 14 15 15 15 16
7 6 6 4 5 5 4 3 4 4 4 5 3 3 2 4 4 4 4 5 3 5 5 6 6 6 8 11 12 12 11 11 12 12 14 15 17 17
7 8 7 6 6 4 4 4 3 4 4 6 5 4 3 4 3 3 4 4 4 5 7 9 10 11 12 11 9 10 12 12 12 14 15 15 15 16
9 8 7 6 6 7 7 6 6 7 7 9 7 6 4 3 3 3 4 3 5 8 11 13 11 11 11 13 12 11 12 12 13 13 14 14 16 17
12 11 11 10 9 8 7 7 6 7 7 8 7 3 3 3 3 1 3 7 10 9 6 6 9 12 13 10 8 9 11 12 12 14 15 16 17 17
18 16 15 13 12 10 9 7 6 5 5 5 4 3 3 2 1 2 4 5 4 3 11 16 11 5 6 6 10 13 15 14 11 10 12 13 14 16
17 15 13 11 10 10 8 9 8 5 3 1 2 2 2 2 1 3 5 3 5 9 14 9 7 6 6 15 18 16 9 3 3 11 13 13 15 16
14 12 11 10 7 5 4 2 2 1 0 1 1 1 1 2 2 3 5 7 10 9 4 4 9 13 17 12 4 2 4 4 13 15 13 15 17 18
12 10 9 9 6 4 2 1 1 2 2 1 0 0 1 1 4 5 6 6 4 2 5 4 7 20 14 4 2 1 4 10 20 14 19 18 18 19
11 10 7 6 4 2 2 2 2 2 3 4 4 5 4 3 2 3 3 2 2 3 3 10 9 12 9 6 2 11 15 11 16 23 19 16 15 16
9 8 6 3 1 1 3 3 3 1 2 4 3 2 2 3 2 2 3 3 4 7 9 7 7 12 6 10 19 20 9 21 27 20 16 12 10 12
6 4 3 2 1 1 3 3 2 4 4 4 2 2 2 3 3 6 6 6 8 12 12 11 9 12 15 17 14 18 27 30 20 26 13 11 17 19
4 3 1 1 2 4 4 2 5 6 5 3 3 3 2 3 6 6 6 7 10 12 13 14 17 20 22 20 21 26 22 25 28 10 24 24 22 25
4 3 3 3 3 4 4 5 6 5 5 5 4 3 5 7 8 7 9 10 13 13 10 11 12 15 21 25 26 29 25 15 30 30 27 27 27 29
5 4 4 3 5 6 5 5 6 6 6 5 5 7 8 10 10 10 11 13 14 18 20 15 12 14 19 24 27 31 32 30 27 28 27 30 32 31
6 5 5 6 7 6 7 7 8 8 8 9 10 10 12 13 14 14 13 14 17 20 22 21 18 17 15 16 19 25 23 25 26 26 27 28 31 31
11 10 11 10 9 8 9 10 11 9 10 11 13 13 14 15 14 16 15 16 19 21 23 21 19 15 6 6 17 18 25 27 26 32 28 27 28 35
14 14 14 12 11 12 12 13 12 11 13 15 16 15 15 16 17 16 16 16 16 21 24 22 19 21 15 8 12 29 26 25 25 28 31 30 31 30
16 15 14 13 12 12 13 13 14 14 15 16 18 19 19 18 18 17 16 17 19 20 21 26 26 19 20 22 17 24 29 21 21 27 29 26 26 26
18 17 17 16 16 16 15 14 15 16 17 18 20 20 20 20 22 24 22 21 21 23 26 30 29 25 22 15 21 24 26 29 23 24 25 27 27 8
21 20 19 19 18 17 16 17 18 18 18 19 20 20 20 21 22 23 25 26 26 26 25 25 25 21 25 22 24 26 26 27 27 28 30 27 25 28
Wind_Direction
220 230 247 251 258 266 257 247 211 182 219 198 238 256 237 215 222 231 211 212 220 244 268 272 270 278 286 291 296 297 295 292 298 294 297 293 289 288
218 243 261 255 247 240 236 237 233 217 178 180 204 219 218 211 225 229 231 242 254 260 264 263 268 282 289 291 287 290 292 296 295 295 294 291 290 294
215 222 217 216 228 227 228 209 209 196 154 155 178 208 223 219 226 242 248 249 246 248 245 266 280 288 288 288 291 294 292 291 290 288 287 291 293 292
186 177 180 188 184 177 178 177 173 183 175 159 164 163 181 183 181 198 215 225 236 272 262 275 284 282 290 290 287 287 287 285 283 288 286 284 287 288
157 158 158 164 166 163 159 151 139 146 168 157 145 158 143 153 158 182 222 245 261 257 259 267 275 280 287 292 287 281 282 285 282 280 283 286 287 289
146 146 146 148 146 140 140 129 125 115 114 129 119 129 136 152 188 216 243 265 281 281 281 282 277 275 275 293 283 278 280 281 283 286 288 290 290 290
126 122 120 123 124 124 130 124 127 119 124 118 115 126 145 174 207 235 298 311 312 300 302 296 299 286 284 279 278 279 282 286 286 285 286 287 287 289
128 125 117 112 104 106 104 101 97 108 118 115 125 154 206 218 221 286 317 335 326 343 329 318 316 298 283 277 290 285 283 283 286 290 290 289 288 288
133 132 133 132 125 119 110 110 90 82 80 131 185 209 230 246 264 297 305 307 288 315 324 318 326 323 299 309 298 288 276 233 291 314 302 294 291 291
125 130 130 119 112 118 117 126 147 127 9 269 253 224 290 313 306 297 307 305 309 311 329 282 316 318 327 328 346 11 154 214 322 316 309 302 296 293
127 130 121 108 102 97 87 162 207 208 189 172 254 329 282 290 282 281 290 299 319 315 326 305 326 335 331 5 22 139 218 284 310 308 310 302 295 294
136 129 117 112 99 37 13 333 323 292 252 261 271 266 261 177 243 268 267 294 304 309 32 352 334 358 330 316 222 307 302 292 314 315 308 303 297 294
144 143 141 134 79 33 322 336 333 283 266 296 289 238 211 214 232 291 315 298 280 266 288 320 296 317 298 301 307 310 299 312 320 319 313 300 298 301
157 156 165 208 257 301 301 314 266 249 291 290 250 210 222 211 255 281 285 283 278 278 288 281 275 285 290 294 290 298 307 315 318 319 320 311 308 306
156 153 160 232 257 287 299 290 244 266 280 257 258 265 241 276 292 301 299 294 290 285 280 275 274 277 276 272 275 287 308 308 315 305 311 315 313 314
182 220 264 271 268 271 270 263 270 271 255 248 248 255 280 281 299 299 304 309 304 304 304 302 283 277 282 279 279 277 283 278 297 303 309 307 309 311
227 243 272 264 253 260 275 277 268 257 243 240 275 275 275 286 288 293 295 298 291 296 304 314 309 294 285 282 275 276 282 287 294 303 307 305 305 309
226 250 266 261 263 266 272 273 264 256 253 242 254 267 276 282 288 291 290 285 286 294 300 312 319 319 315 302 275 272 282 287 299 304 304 296 297 310
238 256 264 269 274 268 274 273 268 268 255 259 262 265 273 279 281 285 285 281 286 293 299 308 308 299 280 280 286 278 272 286 291 292 295 291 285 302
246 257 265 271 272 271 272 271 270 268 260 259 263 267 271 276 282 280 282 280 283 297 302 302 295 298 267 267 286 290 290 280 284 286 290 297 297 299
249 258 265 271 273 275 274 270 266 266 268 265 264 265 268 272 274 274 272 278 283 286 285 287 299 304 291 293 277 277 292 287 274 276 283 285 290 294
254 260 267 271 272 274 275 273 269 267 270 271 273 272 270 269 269 272 274 274 276 279 281 295 303 305 300 270 275 284 292 299 291 280 274 268 269 273
260 264 268 270 272 272 272 271 272 274 275 276 276 276 276 276 277 277 279 280 279 281 283 286 293 291 285 276 280 283 286 292 293 295 292 296 286 271